KK7N Weather Reports


time (UTC)temp
C
wind
direction
speed
KPH
gust
KPH
rain 1hr
cm
rain 24hr
cm
rain mn
cm
humidity
%
barometer
mb
20260904094553 11 0 0.0 0.0 0.00 0.33 0.03 91 1010.7
20260904093103 11 0 0.0 0.0 0.00 0.33 0.03 91 1010.6
20260904091604 11 0 0.0 0.0 0.00 0.33 0.03 91 1010.5
20260904090049 11 0 0.0 0.0 0.00 0.33 0.03 91 1010.5
20260904084553 11 0 0.0 0.0 0.00 0.36 0.03 91 1010.5
20260904083106 12 0 0.0 0.0 0.00 0.36 0.03 91 1010.5
20260904081553 12 0 0.0 0.0 0.00 0.36 0.03 91 1010.5
20260904080052 12 0 0.0 1.6 0.03 0.36 0.03 90 1010.4
20260904074603 12 0 0.0 4.8 0.03 0.38 0.03 91 1010.4
20260904073051 12 169 0.0 3.2 0.03 0.38 0.03 91 1010.4
20260904071553 12 0 0.0 6.4 0.03 0.38 0.03 91 1010.5
20260904070112 12 0 0.0 0.0 0.00 0.36 0.00 92 1010.4
20260904064550 12 0 0.0 0.0 0.00 0.36 0.36 92 1010.4
20260904063103 12 0 0.0 0.0 0.00 0.36 0.36 92 1010.6
20260904061552 12 0 0.0 0.0 0.00 0.36 0.36 92 1010.6
20260904060056 12 0 0.0 0.0 0.00 0.36 0.36 93 1010.6
20260904054554 12 0 0.0 0.0 0.00 0.36 0.36 93 1010.7
20260904053054 12 0 0.0 0.0 0.00 0.36 0.36 93 1010.7
20260904051554 12 0 0.0 0.0 0.00 0.36 0.36 93 1010.7
20260904050056 12 0 0.0 4.8 0.00 0.36 0.36 92 1010.8
20260904044603 12 0 0.0 0.0 0.00 0.36 0.36 92 1010.7
20260904043057 13 0 0.0 0.0 0.00 0.36 0.36 92 1010.8
20260904041559 13 0 0.0 0.0 0.00 0.36 0.36 92 1010.6
20260904040109 13 0 1.6 4.8 0.00 0.36 0.36 92 1010.7
20260904034554 13 0 0.0 0.0 0.00 0.36 0.36 92 1010.5
20260904033051 13 0 0.0 0.0 0.00 0.36 0.36 92 1010.4
20260904031550 13 0 0.0 1.6 0.00 0.36 0.36 91 1010.2
20260904030052 13 0 0.0 1.6 0.00 0.36 0.36 91 1009.9
20260904024555 13 0 0.0 0.0 0.00 0.36 0.36 90 1010.0
20260904023053 13 0 0.0 1.6 0.00 0.36 0.36 90 1010.0
20260904021549 13 0 0.0 0.0 0.00 0.36 0.36 91 1009.9
20260904020054 13 0 0.0 4.8 0.00 0.36 0.36 90 1009.9
20260904014638 13 0 0.0 3.2 0.00 0.38 0.36 90 1010.1
20260904013054 13 102 0.0 4.8 0.00 0.38 0.36 90 1010.3
20260904011553 13 113 1.6 4.8 0.00 0.38 0.36 90 1010.2
20260904004554 13 101 1.6 4.8 0.03 0.51 0.36 91 1010.2
20260904003101 13 0 0.0 0.0 0.03 0.51 0.36 91 1010.5
20260904001551 13 0 0.0 0.0 0.18 0.51 0.36 88 1010.4
20260903234559 13 0 0.0 3.2 0.15 0.89 0.33 90 1010.3
20260903233110 14 5 0.0 17.7 0.15 0.89 0.33 85 1010.4
20260903231553 16 232 11.3 25.7 0.00 0.74 0.18 70 1010.3
20260903230055 16 72 0.0 3.2 0.00 0.74 0.18 68 1009.9
20260903224555 16 75 1.6 6.4 0.00 0.74 0.18 69 1009.9
20260903223111 16 57 1.6 4.8 0.00 0.74 0.18 70 1010.1
20260903221555 16 57 1.6 6.4 0.00 0.74 0.18 69 1010.1
20260903220122 16 304 0.0 9.7 0.00 0.74 0.18 68 1010.1
20260903214552 16 171 6.4 20.9 0.00 0.76 0.18 69 1010.3
20260903213054 16 248 4.8 20.9 0.00 0.76 0.18 66 1010.3
20260903211555 16 185 9.7 20.9 0.00 0.76 0.18 66 1010.4
20260903210057 16 220 9.7 22.5 0.00 0.76 0.18 68 1010.3
20260903204553 16 155 1.6 20.9 0.00 1.09 0.18 70 1010.2
20260903203104 16 103 3.2 17.7 0.00 1.09 0.18 77 1010.2
20260903201554 16 171 4.8 24.1 0.00 1.09 0.18 74 1010.3
20260903200112 16 211 6.4 14.5 0.00 1.09 0.18 71 1010.4
20260903194557 16 169 4.8 20.9 0.00 1.27 0.18 73 1010.3
20260903193052 15 216 9.7 27.4 0.00 1.27 0.18 77 1010.6
20260903191554 16 167 4.8 19.3 0.00 1.27 0.18 77 1010.4
20260903190048 15 252 3.2 11.3 0.00 1.27 0.18 80 1010.4
20260903184553 16 180 4.8 11.3 0.00 1.47 0.18 73 1010.4
20260903183050 16 92 3.2 6.4 0.00 1.47 0.18 79 1010.2
20260903181546 16 0 0.0 4.8 0.00 1.47 0.18 77 1010.2
20260903180053 15 90 3.2 9.7 0.00 1.47 0.18 77 1010.3
20260903174550 15 110 1.6 4.8 0.00 1.47 0.18 81 1010.3
20260903173056 14 0 0.0 0.0 0.00 1.47 0.18 89 1010.4
20260903171551 14 0 0.0 0.0 0.00 1.47 0.18 89 1010.6
20260903170059 13 0 0.0 1.6 0.00 1.47 0.18 87 1010.6
20260903164549 12 0 0.0 0.0 0.03 1.47 0.18 89 1010.6
20260903163054 12 0 0.0 0.0 0.03 1.47 0.18 90 1010.6
20260903161557 12 0 0.0 4.8 0.03 1.47 0.18 89 1010.8
20260903160051 12 0 0.0 0.0 0.05 1.47 0.18 90 1010.7
20260903154551 12 0 1.6 6.4 0.05 1.47 0.15 89 1010.7
20260903153047 12 133 0.0 3.2 0.08 1.47 0.15 89 1010.8
20260903151558 12 0 0.0 0.0 0.08 1.47 0.15 89 1010.8
20260903150108 12 163 0.0 3.2 0.05 1.45 0.13 89 1010.6
20260903144556 12 168 0.0 3.2 0.03 1.42 0.10 88 1010.5
20260903143100 12 0 0.0 1.6 0.00 1.40 0.08 87 1010.6
20260903141558 12 182 0.0 4.8 0.00 1.40 0.08 87 1010.3
20260903140057 12 163 1.6 9.7 0.00 1.40 0.08 86 1010.2
20260903134608 12 177 1.6 8.0 0.00 1.40 0.08 86 1009.9
20260903133049 12 136 1.6 8.0 0.00 1.40 0.08 87 1010.0
20260903131556 12 173 1.6 8.0 0.00 1.40 0.08 88 1009.9
20260903130101 11 138 1.6 6.4 0.00 1.40 0.08 88 1009.9
20260903124559 11 180 3.2 8.0 0.00 1.40 0.08 89 1010.1
20260903123058 11 155 1.6 3.2 0.00 1.40 0.08 89 1009.9
20260903121555 11 0 0.0 4.8 0.00 1.40 0.08 89 1010.2
20260903120109 11 0 0.0 0.0 0.00 1.40 0.08 89 1010.3
20260903114555 11 0 0.0 0.0 0.00 1.40 0.08 89 1010.3
20260903113056 12 0 0.0 0.0 0.00 1.40 0.08 89 1010.2
20260903111552 12 0 0.0 0.0 0.00 1.40 0.08 88 1010.3
20260903110058 12 0 0.0 0.0 0.00 1.40 0.08 88 1010.2
20260903104609 12 0 0.0 0.0 0.03 1.40 0.08 88 1010.2
20260903103058 12 0 0.0 6.4 0.03 1.40 0.08 89 1010.3
20260903101554 12 158 0.0 6.4 0.03 1.40 0.08 89 1010.0
20260903100046 12 173 0.0 4.8 0.03 1.40 0.08 89 1010.0